Kashi Airport
ZWSH : now visible

Airfield :











YOU CAN JOIN US ON...

 
LOGIN :

Register | Disclaimer

   EN    FR    IT 

 









Legend :    VFR   Marginal VFR   IFR   Intensive IFR   Very Intensive IFR
Visi :
Ceiling :
>= 8 km
>= 3000ft
5 to 8 km
1000 to 3000 ft
1500m to 5 km
500 to 1000 ft
800 to 1500m
200 to 500 ft
< 800m
< 200 ft
Symbols :   Thunderstorms  Fog  Heavy snow  Heavy precipitations  Wind > 20 kt






- Airport Elevation : 4529 ft
- IATA code : KHG


ZWSH - Kashi

CURRENT METAR :
  • 270300Z 32004MPS 9999 FEW040 M05/M10 Q1032 NOSIG

EXPIRED METARs :
  • 270200Z 31004MPS 9999 FEW040 M06/M10 Q1032 NOSIG

TAF TAF ZWSH
Valid from the 27 at 00:00 until the 28 at 00:00 UTC


262105Z 2700/2724 32004MPS 8000 SCT040 TX01/2709Z TNM06/2700Z
ZWUQ FIR / Asia



MET'MAP, your aeronautical weather chart ! - Copyright ORBIFLY December 2007 - Disclaimer

ORBIFLY MET'MAP TEAM :

Programming & Development : Alexandra Zaïnal
Concept & original design : Baudouin d'Aumeries
Assistance for programming : Marc-Olivier Méhu
Technical & hardware support : Manuel Goepfert

Contact : metmap@orbifly.com




SOURCES & CREDITS :

   NOAA       Earth
Advisory